TimeCST,TemperatureF,Dew PointF,Humidity,Sea Level PressureIn,VisibilityMPH,Wind Direction,Wind SpeedMPH,Gust SpeedMPH,PrecipitationIn,Events,Conditions,WindDirDegrees,DateUTC
12:56 AM,34.0,32.0,92,30.47,10.0,NNE,4.6,-,N/A,,Clear,30,2012-11-14 06:56:00
1:56 AM,34.9,32.9,92,30.48,10.0,Calm,Calm,-,N/A,,Clear,0,2012-11-14 07:56:00
2:56 AM,39.9,32.0,73,30.47,10.0,NE,5.8,-,N/A,,Clear,40,2012-11-14 08:56:00
3:56 AM,38.8,34.0,83,30.48,10.0,North,4.6,-,N/A,,Partly Cloudy,350,2012-11-14 09:56:00
4:56 AM,41.0,32.9,73,30.47,10.0,NNE,4.6,-,N/A,,Scattered Clouds,30,2012-11-14 10:56:00
5:56 AM,41.0,32.9,73,30.48,10.0,NNE,3.5,-,N/A,,Clear,30,2012-11-14 11:56:00
6:56 AM,37.9,32.9,82,30.49,10.0,Calm,Calm,-,N/A,,Clear,0,2012-11-14 12:56:00
7:56 AM,39.9,34.9,82,30.51,10.0,NNE,3.5,-,N/A,,Clear,20,2012-11-14 13:56:00
8:56 AM,45.9,32.0,58,30.51,10.0,NE,9.2,-,N/A,,Clear,40,2012-11-14 14:56:00
9:56 AM,48.9,32.0,52,30.51,10.0,NE,5.8,-,N/A,,Clear,40,2012-11-14 15:56:00
10:56 AM,52.0,30.0,43,30.50,10.0,NNE,8.1,-,N/A,,Clear,30,2012-11-14 16:56:00
11:56 AM,52.9,28.0,38,30.47,10.0,Variable,5.8,-,N/A,,Clear,0,2012-11-14 17:56:00
12:56 PM,54.9,28.0,36,30.43,10.0,Variable,3.5,-,N/A,,Clear,0,2012-11-14 18:56:00
1:56 PM,55.9,28.0,34,30.41,10.0,NNE,4.6,-,N/A,,Clear,20,2012-11-14 19:56:00
2:56 PM,56.8,28.0,33,30.40,10.0,Variable,5.8,-,N/A,,Clear,0,2012-11-14 20:56:00
3:56 PM,55.9,29.1,36,30.39,10.0,East,5.8,-,N/A,,Clear,80,2012-11-14 21:56:00
4:56 PM,52.9,31.1,43,30.39,10.0,Calm,Calm,-,N/A,,Clear,0,2012-11-14 22:56:00
5:28 PM,46.4,35.6,66,30.34,10.0,Calm,Calm,-,N/A,,Partly Cloudy,0,2012-11-14 23:28:00
5:56 PM,43.0,36.0,76,30.39,10.0,Calm,Calm,-,N/A,,Partly Cloudy,0,2012-11-14 23:56:00
6:56 PM,37.9,34.9,89,30.40,10.0,Calm,Calm,-,N/A,,Clear,0,2012-11-15 00:56:00
7:56 PM,34.9,32.9,92,30.40,10.0,Calm,Calm,-,N/A,,Clear,0,2012-11-15 01:56:00
8:56 PM,32.9,32.0,96,30.41,10.0,Calm,Calm,-,N/A,,Clear,0,2012-11-15 02:56:00
9:56 PM,32.0,31.1,96,30.40,10.0,Calm,Calm,-,N/A,,Clear,0,2012-11-15 03:56:00
10:56 PM,30.0,29.1,96,30.41,10.0,Calm,Calm,-,N/A,,Clear,0,2012-11-15 04:56:00
11:56 PM,30.0,29.1,96,30.40,10.0,Calm,Calm,-,N/A,,Clear,0,2012-11-15 05:56:00